Zurück zum Katalog

STARLINK-3532

AktivKommunikationVLEO
NORAD 51727·PAYLOAD·🇺🇸 United States

Gestartet Feb 21, 2022 von Cape Canaveral Space Force Station

Loading…

Nächste Überflüge (nächste 24 Stunden)

TLE

AktuellSource: CelesTrak SupGP

Epoche: Sep 14, 2026, 21:35 UTC

1 51727C 22016P   26257.89979167 -.00019798  00000+0 -58500-3 0  2574
2 51727  53.1579 189.5464 0001659  94.8869 172.1013 15.34396994    15

Verfolge STARLINK-3532 in Echtzeit mit AllMySat

Download on the App Store